Tracking 28908 objects as of 21-May-2024
HD Live streaming from Space Station
objects crossing your sky now

STARLINK-2407

Track STARLINK-2407 now!
10-day predictions
STARLINK-2407 is classified as:


NORAD ID: 47822
Int'l Code: 2021-018AM
Perigee: 553.7 km
Apogee: 555.0 km
Inclination: 53.1 °
Period: 95.6 minutes
Semi major axis: 6925 km
RCS: Unknown
Launch date: March 11, 2021
Source: United States (US)
Launch site: AIR FORCE EASTERN TEST RANGE (AFETR)
Your satellite tracking list
Your tracking list is empty




NASA's NSSDC Master Catalog

Two Line Element Set (TLE):
1 47822U 21018AM  24141.82143189  .00002045  00000-0  15618-3 0  9998
2 47822  53.0557 334.8914 0000943  90.6827 269.4270 15.06394903176969
Source of the keplerian elements: AFSPC